Wind_Speed
49 47 46 44 43 44 44 45 47 48 48 47 47 47 45 44 43 42 43 43 44 44 47 47 46 48 45 43 42 43 45 46 47 48 48 48 49 49 47 45 44 45 47 50
54 53 52 50 47 48 48 49 50 49 49 47 48 48 48 47 47 46 46 46 46 47 47 46 46 44 43 42 43 45 45 45 46 46 47 48 48 46 45 44 45 47 49 51
54 55 56 56 52 53 53 54 54 54 52 52 52 51 51 50 49 49 49 49 50 50 49 47 44 44 44 44 44 43 43 44 45 46 47 46 45 44 44 45 47 49 50 52
49 51 53 52 52 51 52 52 53 54 54 54 55 55 55 54 53 52 51 51 51 50 48 47 45 43 42 43 42 42 42 43 44 45 45 44 44 44 45 47 48 49 50 51
44 47 48 48 49 50 50 50 49 50 50 51 52 53 54 54 53 52 52 52 50 48 46 45 43 41 41 41 40 41 42 43 43 43 43 43 43 45 47 48 48 49 50 50
42 44 45 45 46 46 48 46 43 44 45 46 47 48 48 48 48 49 49 48 47 45 44 42 40 39 38 38 39 40 41 42 41 41 41 43 44 46 46 47 47 48 48 48
37 39 40 41 41 41 41 40 39 39 39 40 40 41 42 43 42 42 41 41 40 40 38 36 36 35 35 36 37 39 39 39 39 40 41 43 45 45 45 46 46 46 46 45
32 33 33 34 35 36 36 35 34 34 34 34 34 34 35 35 35 34 35 35 34 33 31 30 30 31 32 34 35 36 36 36 38 40 42 44 44 44 43 43 43 43 43 42
27 26 27 28 29 29 30 30 29 28 28 28 28 28 28 28 28 29 29 28 26 24 23 24 26 28 30 32 32 32 33 36 38 40 42 42 42 42 41 41 41 41 40 39
22 22 22 23 23 24 24 23 21 21 21 22 22 22 22 21 21 21 20 19 18 18 19 21 24 26 27 28 29 30 33 36 38 40 40 40 40 39 38 38 37 37 36 35
17 17 17 17 17 16 16 15 15 15 16 16 15 15 17 16 14 13 12 13 14 15 17 19 22 23 24 25 28 31 34 36 38 38 38 38 37 36 35 34 33 33 32 30
12 12 11 10 10 8 9 9 9 9 9 11 12 12 11 10 10 9 9 10 11 13 16 18 20 20 22 24 28 31 34 35 36 37 37 36 35 34 32 31 31 30 29 27
10 9 8 7 7 8 9 11 10 9 8 8 8 8 7 6 6 5 6 8 11 13 15 16 17 18 21 25 29 32 33 34 35 35 35 34 33 32 30 29 29 27 26 24
9 9 10 10 9 8 8 8 8 7 7 6 6 5 4 3 3 5 7 9 10 11 12 13 15 18 23 26 29 31 33 33 34 34 33 32 30 29 28 27 26 26 24 21
8 10 11 10 9 8 7 7 5 4 3 3 3 2 2 3 4 6 7 8 8 8 10 12 16 20 24 26 29 31 32 33 33 33 31 30 28 26 25 25 24 24 22 19
8 8 9 9 8 6 6 5 4 3 3 2 2 2 3 4 4 5 5 5 5 7 9 13 17 21 24 26 29 31 32 33 32 31 29 27 25 24 23 23 23 22 20 17
7 6 7 7 6 6 5 4 3 3 2 2 3 3 3 3 3 3 2 3 4 7 11 15 18 21 24 26 29 31 32 31 30 29 27 25 24 23 22 22 22 21 19 16
6 6 6 6 5 5 4 4 3 3 3 3 2 2 2 1 1 2 3 3 5 8 12 15 18 21 25 28 30 31 31 30 29 28 26 24 23 23 23 22 22 21 20 17
7 6 6 5 5 5 5 5 4 4 3 3 2 1 1 2 4 5 5 5 7 10 13 16 19 23 26 29 30 31 31 31 29 28 26 24 24 24 23 23 22 22 20 19
10 9 8 7 7 6 6 5 4 3 3 3 3 3 4 6 7 7 6 7 8 11 14 18 21 24 27 30 31 33 33 32 30 29 27 25 24 24 24 24 23 22 21 19
11 10 9 9 8 7 6 5 5 4 4 4 4 6 8 9 9 9 8 8 10 13 16 19 22 25 29 31 33 34 34 33 32 30 28 27 25 25 25 25 24 24 22 20
13 11 10 9 8 7 7 6 6 6 5 6 7 10 11 12 11 10 9 9 11 14 17 19 23 27 30 33 35 36 36 35 34 32 31 29 27 26 26 26 26 25 23 22
14 12 10 9 9 9 8 8 7 7 7 8 10 13 14 14 13 11 10 11 12 15 17 21 24 28 31 34 36 37 37 36 36 35 34 32 30 28 27 27 26 26 26 24
14 12 11 10 10 10 9 9 8 8 9 11 13 15 17 16 14 12 11 11 13 15 18 22 25 28 31 34 36 38 38 38 37 37 36 35 33 31 30 29 28 27 27 26
14 13 12 12 11 11 10 9 9 9 10 13 16 18 18 17 14 12 11 12 14 16 19 22 26 29 32 34 36 37 38 39 39 39 39 38 37 35 34 32 31 30 28 28
15 14 14 13 13 12 11 10 9 10 12 15 18 20 19 17 15 12 11 12 14 16 19 22 25 29 32 34 36 37 38 39 40 40 40 41 40 39 38 36 35 34 32 30
16 16 16 15 14 13 12 10 10 11 14 17 20 21 20 18 15 13 11 12 13 15 18 21 24 28 31 33 35 37 38 39 40 41 41 42 42 42 41 41 39 38 37 35
Wind_Direction
258 260 260 259 259 261 262 263 264 266 268 271 273 276 278 280 282 283 286 288 290 292 293 293 293 290 288 294 300 306 310 310 308 308 309 311 311 312 312 312 311 311 311 311
257 259 261 262 263 265 266 267 269 269 270 271 272 274 275 277 280 282 284 288 290 292 293 294 294 291 295 299 305 309 309 308 309 310 312 313 313 313 313 313 313 313 313 312
257 259 262 264 266 266 267 269 269 270 271 271 271 273 275 276 278 280 282 285 288 290 292 295 294 296 299 302 307 308 309 309 311 313 313 314 314 314 314 314 315 314 314 313
260 261 262 266 267 267 267 267 268 268 269 270 270 271 272 274 276 278 281 284 286 289 290 293 294 296 299 303 306 308 309 311 313 314 315 315 314 315 315 316 315 315 314 314
262 264 266 267 268 269 268 267 267 267 268 268 269 270 271 273 274 276 279 281 284 287 289 292 292 294 299 303 306 308 310 312 314 315 315 314 315 316 316 316 316 315 315 316
264 265 267 269 269 269 269 269 269 267 266 265 265 266 268 270 271 273 275 277 280 282 284 285 287 293 300 303 306 309 312 314 315 314 314 315 316 317 317 316 316 316 317 318
266 267 268 269 270 271 271 271 268 267 265 264 263 264 266 267 269 270 271 272 273 273 275 279 287 294 299 303 307 311 314 314 313 314 315 316 317 317 317 317 317 318 319 321
270 270 271 271 271 271 271 271 269 266 263 262 261 262 263 266 266 265 264 264 263 262 268 280 288 295 301 305 310 312 313 312 313 315 317 318 318 318 318 319 320 322 323 325
271 273 272 273 272 271 271 270 268 264 260 258 257 257 260 262 260 261 258 256 254 264 274 283 292 299 304 309 311 311 312 313 316 317 318 319 319 320 321 322 323 325 326 327
270 270 270 271 271 271 270 269 266 260 255 253 253 252 251 252 247 244 246 252 261 270 280 290 298 305 310 312 311 312 314 317 318 320 321 321 322 324 325 326 327 328 329 329
265 265 267 266 267 267 264 260 258 253 247 247 244 244 242 242 242 242 250 262 271 282 293 301 308 312 312 311 313 316 318 320 322 323 324 325 326 327 328 330 331 332 334 335
251 250 250 253 252 249 238 233 233 234 234 230 229 232 232 236 239 247 258 272 289 300 307 311 313 312 313 315 318 321 323 324 325 326 328 329 330 331 332 334 335 337 340 342
228 219 214 211 210 214 216 212 209 216 220 216 220 222 228 232 238 257 283 299 307 312 315 315 314 316 319 322 325 326 327 329 330 331 332 333 334 335 336 338 341 343 346 349
203 203 196 192 193 195 197 192 196 205 208 212 219 224 228 245 276 297 308 313 317 318 318 318 322 326 328 330 331 332 333 334 334 335 335 336 338 339 341 344 347 350 352 355
188 185 183 187 191 189 189 188 187 192 203 216 228 246 277 302 312 315 318 321 322 323 325 330 334 335 336 337 337 338 338 339 339 339 340 341 343 345 348 351 353 356 358 2
171 170 174 180 182 181 181 186 198 215 225 236 265 295 312 316 317 320 327 332 332 337 341 344 343 343 343 344 344 344 344 344 345 345 347 349 351 353 356 358 0 2 5 8
175 180 183 181 177 182 188 195 205 220 245 266 286 298 308 314 319 332 355 1 1 357 355 353 352 351 351 351 352 351 351 351 353 354 356 358 0 2 4 6 8 10 13 17
183 184 187 186 194 205 216 226 242 254 267 272 272 283 300 324 41 86 79 56 26 11 4 3 1 360 359 360 -0 360 0 2 3 5 6 8 10 11 12 14 16 19 23 28
200 209 216 216 220 226 232 240 248 254 250 234 225 215 143 125 123 115 101 70 38 21 16 13 10 8 8 9 9 9 10 11 12 14 15 17 18 19 20 21 24 27 31 35
221 228 236 237 238 238 239 243 243 230 215 201 190 161 139 132 127 119 101 70 44 31 26 21 17 16 17 17 17 18 19 20 20 21 22 24 25 25 27 28 30 32 35 40
223 227 233 237 235 231 231 229 217 205 198 190 172 151 141 136 129 118 96 70 50 41 34 28 26 25 25 25 25 25 26 26 27 28 28 29 30 30 31 33 34 36 39 44
218 223 228 227 223 218 211 204 200 196 189 176 160 150 144 139 131 118 97 73 58 48 40 35 34 33 32 32 31 31 31 31 32 32 32 33 33 34 34 36 37 39 42 47
213 217 219 218 212 204 199 196 191 186 178 165 155 150 145 140 131 117 96 78 64 54 47 43 41 39 38 37 36 36 36 36 36 36 37 37 38 38 38 39 41 42 45 49
208 210 212 209 200 193 188 184 180 175 167 159 154 151 147 142 133 118 98 81 70 60 53 49 46 44 42 41 40 39 39 40 40 40 40 41 42 42 42 43 44 45 47 50
206 207 205 199 192 185 180 176 172 168 162 156 154 152 149 143 133 118 101 87 76 66 59 55 51 49 47 45 43 43 43 43 43 44 44 44 45 45 46 46 47 49 50 53
204 202 197 193 189 183 177 173 170 166 160 155 154 154 151 147 137 122 105 92 82 72 66 60 57 54 52 49 48 47 47 47 47 47 48 48 49 49 50 51 51 52 53 55
199 196 194 191 188 184 179 174 169 164 160 158 159 158 156 151 141 128 111 98 89 80 72 67 62 59 56 54 53 52 51 51 51 51 51 51 52 52 53 54 54 55 55 56
Height
5730 5733 5736 5739 5741 5742 5742 5743 5742 5743 5745 5748 5749 5749 5749 5749 5749 5749 5748 5746 5744 5741 5738 5734 5730 5726 5721 5717 5713 5708 5704 5699 5693 5686 5679 5672 5665 5658 5650 5643 5636 5629 5622 5614
5720 5723 5724 5726 5731 5733 5734 5734 5734 5734 5735 5739 5738 5738 5739 5739 5740 5739 5738 5736 5734 5731 5728 5725 5721 5716 5711 5707 5703 5698 5693 5687 5681 5674 5667 5660 5654 5647 5639 5632 5625 5618 5610 5602
5710 5712 5712 5714 5720 5722 5723 5724 5724 5723 5726 5726 5726 5727 5728 5728 5729 5728 5727 5726 5723 5720 5718 5715 5711 5706 5702 5698 5693 5688 5682 5676 5669 5663 5656 5649 5643 5636 5629 5622 5614 5606 5598 5590
5699 5701 5701 5708 5707 5708 5709 5711 5711 5711 5713 5714 5714 5715 5716 5717 5718 5718 5717 5715 5712 5710 5708 5705 5702 5697 5693 5688 5683 5678 5672 5665 5659 5652 5646 5639 5633 5626 5619 5611 5603 5595 5586 5578
5689 5689 5691 5695 5694 5693 5694 5697 5698 5698 5700 5700 5701 5701 5703 5705 5706 5706 5705 5704 5702 5700 5698 5696 5692 5688 5684 5679 5674 5668 5662 5655 5649 5643 5636 5630 5623 5616 5608 5600 5592 5584 5575 5567
5679 5679 5680 5682 5681 5680 5681 5684 5685 5685 5686 5687 5688 5690 5692 5693 5694 5694 5694 5693 5693 5691 5689 5687 5684 5679 5675 5671 5665 5659 5653 5646 5640 5634 5628 5622 5614 5607 5599 5590 5582 5573 5565 5557
5668 5668 5669 5670 5669 5669 5671 5672 5672 5672 5673 5675 5677 5679 5680 5681 5682 5683 5684 5684 5683 5682 5681 5678 5675 5672 5668 5663 5657 5651 5645 5639 5633 5627 5621 5613 5605 5597 5589 5581 5572 5564 5556 5547
5659 5659 5662 5658 5658 5659 5659 5660 5660 5661 5663 5664 5666 5668 5669 5671 5672 5673 5674 5675 5674 5673 5672 5670 5668 5665 5660 5655 5650 5644 5638 5633 5627 5620 5613 5605 5597 5588 5580 5572 5563 5555 5547 5538
5651 5653 5651 5649 5649 5649 5649 5650 5651 5652 5654 5656 5658 5660 5662 5664 5665 5666 5667 5668 5667 5666 5666 5664 5662 5658 5654 5648 5643 5638 5633 5627 5620 5613 5605 5597 5588 5580 5572 5563 5555 5547 5539 5532
5643 5644 5643 5642 5641 5641 5642 5642 5643 5645 5647 5649 5652 5654 5656 5658 5659 5660 5661 5662 5662 5661 5661 5659 5656 5651 5647 5642 5638 5633 5627 5620 5613 5605 5597 5589 5580 5572 5564 5556 5549 5541 5533 5526
5638 5638 5637 5636 5636 5636 5636 5637 5638 5640 5642 5645 5647 5650 5652 5654 5655 5656 5657 5658 5658 5657 5656 5653 5650 5645 5642 5638 5633 5628 5621 5614 5606 5598 5590 5582 5574 5566 5558 5551 5543 5536 5529 5521
5634 5634 5634 5633 5633 5633 5634 5635 5636 5638 5640 5642 5645 5647 5649 5651 5652 5653 5654 5654 5654 5653 5651 5648 5645 5642 5638 5634 5629 5623 5616 5608 5600 5591 5583 5575 5567 5560 5552 5546 5538 5531 5524 5517
5630 5630 5631 5631 5632 5632 5633 5634 5636 5638 5639 5641 5644 5646 5647 5649 5650 5650 5651 5651 5650 5649 5646 5644 5642 5639 5635 5630 5624 5618 5610 5602 5594 5585 5577 5569 5562 5555 5548 5541 5534 5527 5521 5515
5628 5629 5630 5631 5632 5633 5633 5634 5636 5638 5640 5642 5644 5645 5646 5647 5648 5648 5649 5648 5647 5645 5644 5642 5640 5636 5632 5627 5620 5613 5605 5597 5588 5580 5572 5565 5557 5550 5544 5537 5531 5525 5519 5513
5627 5628 5629 5631 5632 5633 5634 5636 5637 5639 5640 5642 5643 5644 5645 5646 5647 5647 5647 5646 5645 5644 5643 5641 5638 5634 5629 5623 5616 5609 5600 5592 5584 5576 5568 5560 5554 5547 5541 5535 5529 5523 5518 5513
5627 5628 5629 5631 5633 5634 5635 5637 5638 5640 5641 5642 5643 5644 5645 5645 5646 5646 5646 5645 5645 5644 5642 5640 5637 5632 5627 5621 5613 5605 5597 5588 5580 5572 5564 5557 5551 5545 5539 5534 5528 5523 5518 5513
5627 5629 5630 5632 5633 5635 5636 5638 5639 5640 5642 5643 5643 5644 5645 5645 5646 5646 5645 5645 5645 5644 5642 5640 5636 5631 5625 5618 5611 5602 5594 5585 5577 5569 5562 5555 5550 5544 5539 5534 5528 5523 5518 5514
5628 5629 5631 5632 5634 5635 5637 5638 5639 5640 5641 5642 5643 5644 5645 5645 5646 5646 5646 5646 5646 5645 5643 5640 5636 5630 5624 5617 5609 5600 5592 5583 5575 5568 5561 5555 5550 5545 5539 5534 5529 5524 5519 5515
5628 5629 5630 5632 5634 5635 5636 5638 5639 5640 5641 5642 5643 5644 5645 5646 5647 5647 5648 5648 5648 5646 5644 5640 5636 5630 5623 5616 5608 5600 5591 5583 5575 5569 5562 5557 5551 5546 5541 5536 5531 5526 5522 5518
5627 5628 5630 5631 5633 5634 5636 5637 5638 5640 5641 5642 5644 5645 5646 5647 5648 5649 5650 5650 5649 5648 5645 5641 5637 5631 5624 5616 5609 5600 5592 5584 5577 5571 5565 5559 5554 5549 5544 5539 5534 5530 5525 5522
5626 5627 5629 5631 5632 5634 5635 5637 5638 5640 5641 5643 5644 5646 5647 5649 5650 5651 5652 5652 5651 5649 5646 5643 5638 5632 5625 5618 5611 5602 5595 5587 5580 5574 5568 5563 5557 5553 5548 5543 5538 5534 5530 5526
5624 5626 5628 5630 5632 5633 5635 5637 5638 5640 5642 5643 5645 5647 5649 5651 5652 5654 5654 5654 5653 5651 5649 5645 5640 5634 5628 5621 5614 5606 5599 5592 5585 5579 5573 5567 5562 5557 5552 5548 5543 5539 5534 5531
5622 5625 5627 5629 5631 5633 5635 5637 5639 5640 5642 5644 5646 5648 5651 5653 5655 5656 5657 5657 5655 5654 5651 5647 5643 5637 5632 5625 5618 5611 5605 5598 5591 5585 5579 5573 5567 5562 5558 5553 5549 5544 5540 5536
5621 5623 5626 5628 5630 5633 5635 5637 5639 5641 5642 5645 5647 5650 5652 5655 5657 5658 5659 5659 5658 5657 5654 5650 5646 5642 5636 5630 5624 5618 5612 5605 5599 5592 5586 5580 5574 5569 5564 5559 5555 5550 5546 5543
5619 5622 5625 5627 5630 5633 5635 5637 5639 5641 5643 5645 5648 5651 5654 5657 5659 5661 5662 5662 5661 5660 5657 5654 5651 5647 5642 5636 5631 5625 5619 5613 5607 5600 5594 5588 5582 5577 5571 5566 5562 5558 5554 5550
5618 5621 5623 5627 5630 5633 5635 5637 5639 5641 5644 5646 5650 5653 5656 5659 5661 5663 5664 5664 5664 5663 5661 5659 5656 5652 5648 5643 5638 5633 5627 5622 5616 5609 5603 5597 5592 5586 5580 5575 5571 5566 5562 5558
5616 5619 5622 5626 5629 5632 5635 5638 5640 5642 5644 5648 5651 5655 5658 5661 5663 5665 5667 5667 5667 5666 5665 5663 5660 5657 5654 5650 5646 5641 5636 5631 5625 5619 5613 5608 5602 5596 5591 5586 5581 5576 5572 5567